This is the latest recevied weather packets stored in our database for station/object DB8NZ-22. If no packets are shown the sender has not sent any weather packets the latest 10 day(s).
| Time | Temp. | Humidity | Pressure | Rain* | Wind** | Luminosity | Snow |
|---|---|---|---|---|---|---|---|
| 1777513482 | 6.67° C | 35% | 1029.3 hPa | - | - | - | - |
| 1777512581 | 7.22° C | 35% | 1029.2 hPa | - | - | - | - |
| 1777511681 | 7.22° C | 35% | 1029 hPa | - | - | - | - |
| 1777510781 | 7.78° C | 34% | 1029.1 hPa | - | - | - | - |
| 1777509881 | 7.78° C | 34% | 1029.2 hPa | - | - | - | - |
| 1777508981 | 7.78° C | 34% | 1029.1 hPa | - | - | - | - |
| 1777508081 | 7.78° C | 34% | 1028.9 hPa | - | - | - | - |
| 1777507181 | 8.33° C | 34% | 1028.9 hPa | - | - | - | - |
| 1777506280 | 8.33° C | 34% | 1028.8 hPa | - | - | - | - |
| 1777505381 | 8.33° C | 33% | 1028.6 hPa | - | - | - | - |
| 1777504480 | 8.89° C | 33% | 1028.4 hPa | - | - | - | - |
| 1777503580 | 9.44° C | 32% | 1028.5 hPa | - | - | - | - |
| 1777502680 | 9.44° C | 31% | 1028.4 hPa | - | - | - | - |
| 1777501780 | 10° C | 31% | 1028.2 hPa | - | - | - | - |
| 1777500880 | 10° C | 30% | 1028 hPa | - | - | - | - |
| 1777499980 | 10.56° C | 30% | 1028 hPa | - | - | - | - |
| 1777499080 | 10.56° C | 30% | 1027.9 hPa | - | - | - | - |
| 1777498180 | 10.56° C | 30% | 1027.8 hPa | - | - | - | - |
| 1777497280 | 11.11° C | 29% | 1027.5 hPa | - | - | - | - |
| 1777496380 | 11.11° C | 29% | 1027.3 hPa | - | - | - | - |
| 1777495480 | 11.67° C | 28% | 1027.1 hPa | - | - | - | - |
| 1777494580 | 12.22° C | 28% | 1027 hPa | - | - | - | - |
| 1777493679 | 12.22° C | 27% | 1026.9 hPa | - | - | - | - |
| 1777492779 | 12.78° C | 26% | 1026.8 hPa | - | - | - | - |
| 1777491879 | 13.33° C | 26% | 1026.5 hPa | - | - | - | - |
* Rain since midnight (hover to see other rain measurements)
** Current wind speed in m/s (hover to see current wind gust speed)